Change the Weather History Date:

Thursday, March 6, 2014

  Actual Average Record
Temperature  
Mean Temperature 17 °F -  
Max Temperature 24 °F 33 °F 50 °F (2007)
Min Temperature 10 °F 16 °F -11 °F (2002)
Degree Days  
Heating Degree Days 48    
Moisture  
Dew Point 5 °F    
Average Humidity 65    
Maximum Humidity 73    
Minimum Humidity 49    
Precipitation  
Precipitation 0.16 in - - ()
Sea Level Pressure  
Sea Level Pressure 29.65 in    
Wind  
Wind Speed 3 mph ()    
Max Wind Speed 8 mph    
Max Gust Speed 21 mph    
Visibility 6.3 miles    
Events      
Averages and records for this station are not official NWS values.
T = Trace of Precipitation, MM = Missing Value Source: Averaged Metar Reports

Daily Weather History Graph

Daily Weather History Graph

Search for Another Location

Airport or City:

Trip Planner

Search our weather history database for the weather conditions in past years. The results will help you decide how hot, cold, wet, or windy it might be!

Date:

Astronomy

Mar. 06, 2014 Rise Set
Actual Time 6:39 AM PST 5:55 PM PST
Civil Twilight 6:06 AM PST 6:28 PM PST
Nautical Twilight 5:28 AM PST 7:07 PM PST
Astronomical Twilight 4:49 AM PST 7:46 PM PST
Moon 9:13 AM PST (3/6) No Moon Set
Length of Visible Light 12h 22m
Length of Day
11h 16m
Waxing Crescent, 33% of the Moon is Illuminated
Mar 6
Waxing Crescent
Mar 8
First Quarter
Mar 16
Full
Mar 23
Last Quarter
Mar 30
New

Hourly Weather History & Observations

Time (PST) Temp. Windchill Dew Point Humidity Pressure Visibility Wind Dir Wind Speed Gust Speed Precip Events Conditions
12:00 AM 12.2 °F 2.9 °F 3.2 °F 67% 29.62 in 9.0 mi NW 5.8 mph - N/A   Unknown
12:43 AM 12.2 °F 2.9 °F 3.2 °F 67% 29.46 in 9.0 mi WNW 5.8 mph - N/A   Unknown
12:57 AM 12.2 °F - 3.2 °F 67% 29.45 in 2.2 mi NNW 2.3 mph - N/A   Unknown
12:59 AM 12.2 °F - 3.2 °F 67% 29.45 in 1.0 mi North 2.3 mph - N/A   Unknown
1:00 AM 12 °F - 3 °F 55% 29.63 in 1 mi NNW 3.5 mph - -  
1:00 AM 12.2 °F 4.3 °F 3.2 °F 67% 29.63 in 0.8 mi NNW 4.6 mph - N/A   Unknown
1:01 AM 12.2 °F 1.7 °F 3.2 °F 67% 29.45 in 0.6 mi NW 6.9 mph - N/A   Unknown
1:03 AM 12.2 °F 4.3 °F 3.2 °F 67% 29.45 in 0.6 mi North 4.6 mph - N/A   Unknown
1:10 AM 12.2 °F 6.1 °F 3.2 °F 67% 29.46 in 0.6 mi NNW 3.5 mph - N/A   Unknown
1:12 AM 12.2 °F 2.9 °F 3.2 °F 67% 29.46 in 0.5 mi NNW 5.8 mph - N/A   Unknown
1:13 AM 12.2 °F 2.9 °F 3.2 °F 67% 29.46 in 0.4 mi NNW 5.8 mph - N/A   Unknown
1:19 AM 12.2 °F 1.7 °F 3.2 °F 67% 29.45 in 0.1 mi NW 6.9 mph - N/A   Unknown
2:00 AM 10.4 °F -1.5 °F 1.4 °F 67% 29.63 in 0.1 mi NW 8.1 mph 20.7 mph N/A   Unknown
2:43 AM 10.4 °F - 1.4 °F 67% 29.45 in 0.5 mi North 2.3 mph - N/A   Unknown
2:44 AM 10.4 °F - 1.4 °F 67% 29.45 in 0.5 mi Calm Calm - N/A   Unknown
2:57 AM 10.4 °F 4.0 °F 1.4 °F 67% 29.46 in 1.0 mi North 3.5 mph - N/A   Unknown
3:00 AM 10.4 °F 2.2 °F 1.4 °F 67% 29.63 in 1.2 mi NNE 4.6 mph - N/A   Unknown
3:07 AM 10.4 °F 2.2 °F 1.4 °F 67% 29.46 in 1.2 mi NNE 4.6 mph - N/A   Unknown
3:12 AM 10.4 °F - 1.4 °F 67% 29.47 in 1.5 mi North 2.3 mph - N/A   Unknown
3:13 AM 10.4 °F - 1.4 °F 67% 29.47 in 1.2 mi North 2.3 mph - N/A   Unknown
3:18 AM 10.4 °F - -0.4 °F 62% 29.46 in 0.8 mi NNE 2.3 mph - N/A   Unknown
3:27 AM 10.4 °F 2.2 °F -0.4 °F 62% 29.47 in 1.5 mi North 4.6 mph - N/A   Unknown
3:42 AM 10.4 °F - 1.4 °F 67% 29.48 in 7.0 mi North 2.3 mph - N/A   Unknown
4:00 AM 11 °F - 1 °F 50% 29.64 in 9 mi NNE 3.5 mph - -  
4:00 AM 10.4 °F 4.0 °F 1.4 °F 67% 29.64 in 9.0 mi North 3.5 mph - N/A   Unknown
4:46 AM 10.4 °F 0.8 °F 1.4 °F 67% 29.50 in 2.5 mi North 5.8 mph - N/A   Unknown
5:00 AM 10.4 °F - 1.4 °F 67% 29.67 in 3.0 mi NE 2.3 mph - N/A   Unknown
6:00 AM 10.4 °F 2.2 °F 1.4 °F 67% 29.70 in 9.0 mi North 4.6 mph - N/A   Unknown
7:00 AM 11 °F - 1 °F 49% 29.70 in 9 mi North 2.3 mph - -  
7:00 AM 10.4 °F - 1.4 °F 67% 29.70 in 9.0 mi North 2.3 mph - N/A   Unknown
8:00 AM 12.2 °F - 3.2 °F 67% 29.72 in 9.0 mi East 2.3 mph - N/A   Unknown
8:11 AM 12.2 °F - 3.2 °F 67% 29.53 in 9.0 mi Calm Calm - N/A   Unknown
8:31 AM 12.2 °F - 3.2 °F 67% 29.54 in 9.0 mi NNE 2.3 mph - N/A   Unknown
9:00 AM 14.0 °F - 3.2 °F 62% 29.74 in 9.0 mi East 2.3 mph - N/A   Unknown
9:36 AM 14.0 °F - 5.0 °F 67% 29.56 in 9.0 mi East 2.3 mph - N/A   Unknown
10:00 AM 15 °F - 5 °F 50% 29.74 in 9 mi ENE 3.5 mph - -  
10:00 AM 14.0 °F 8.2 °F 5.0 °F 67% 29.74 in 9.0 mi ENE 3.5 mph - N/A   Unknown
11:00 AM 15.8 °F 8.6 °F 5.0 °F 62% 29.75 in 9.0 mi NNE 4.6 mph - N/A   Unknown
12:00 PM 17.6 °F 10.7 °F 6.8 °F 63% 29.76 in 9.0 mi NNE 4.6 mph - N/A   Unknown
1:00 PM 18 °F - 8 °F 53% 29.77 in 9 mi East 2.3 mph - -  
1:00 PM 17.6 °F - 8.6 °F 68% 29.77 in 9.0 mi Calm Calm - N/A   Unknown
2:00 PM 19.4 °F - 10.4 °F 68% 29.78 in 9.0 mi Calm Calm - N/A   Unknown
2:34 PM 19.4 °F - 10.4 °F 68% 29.60 in 9.0 mi East 2.3 mph - N/A   Unknown
2:52 PM 21.2 °F 16.4 °F 10.4 °F 63% 29.60 in 9.0 mi East 3.5 mph - N/A   Unknown
3:00 PM 21.2 °F 16.4 °F 10.4 °F 63% 29.78 in 9.0 mi East 3.5 mph - N/A   Unknown
3:07 PM 23.0 °F 18.4 °F 12.2 °F 63% 29.61 in 9.0 mi East 3.5 mph - N/A   Unknown
4:00 PM 21 °F - 11 °F 54% 29.80 in 9 mi East 2.3 mph - -  
4:00 PM 21.2 °F - 12.2 °F 68% 29.80 in 9.0 mi Calm Calm - N/A   Unknown
4:30 PM 21.2 °F - 12.2 °F 68% 29.63 in 9.0 mi Calm Calm - N/A   Unknown
4:48 PM 21.2 °F - 12.2 °F 68% 29.63 in 9.0 mi Calm Calm - N/A   Unknown
5:00 PM 23.0 °F - 12.2 °F 63% 29.81 in 9.0 mi Calm Calm - N/A   Unknown
5:05 PM 23.0 °F - 12.2 °F 63% 29.64 in 9.0 mi Calm Calm - N/A   Unknown
5:30 PM 21.2 °F - 12.2 °F 68% 29.65 in 9.0 mi Calm Calm - N/A   Unknown
6:00 PM 21.2 °F - 12.2 °F 68% 29.85 in 9.0 mi Calm Calm - N/A   Unknown
7:00 PM 19 °F - 11 °F 59% 29.89 in 9 mi Calm Calm - -  
7:00 PM 19.4 °F - 10.4 °F 68% 29.89 in 9.0 mi Calm Calm - N/A   Unknown
8:00 PM 19.4 °F - 10.4 °F 68% 29.91 in 9.0 mi Calm Calm - N/A   Unknown
8:23 PM 17.6 °F 12.3 °F 10.4 °F 73% 29.74 in 9.0 mi North 3.5 mph - N/A   Unknown
8:46 PM 17.6 °F 12.3 °F 8.6 °F 68% 29.76 in 9.0 mi North 3.5 mph - N/A   Unknown
9:00 PM 17.6 °F - 8.6 °F 68% 29.95 in 9.0 mi North 2.3 mph - N/A   Unknown
10:00 PM 15 °F - 7 °F 57% 29.96 in 9 mi WNW 3.5 mph - -  
10:00 PM 15.8 °F 10.2 °F 6.8 °F 68% 29.96 in 9.0 mi WNW 3.5 mph - N/A   Unknown
10:59 PM 14.0 °F 5.1 °F 5.0 °F 67% 29.80 in 9.0 mi NW 5.8 mph - N/A   Unknown
11:00 PM 14.0 °F 5.1 °F 5.0 °F 67% 29.99 in 9.0 mi NW 5.8 mph - N/A   Unknown
11:09 PM 15.8 °F 7.2 °F 6.8 °F 68% 29.81 in 9.0 mi NW 5.8 mph - N/A   Unknown